User: anonymous
Location: Caltech
(34.1382°N, 118.1253°W)
Time: 23:50:28
(UTC-07:00)
Language:

Iridium 75 - Orbit

View from above orbital plane
View from above orbital plane
View from above satellite
View from above satellite

Ground track
Ground track

The orbit data is extracted from the following two-line orbital elements,

1 25346U 98032E   14231.28695539  .00000310  00000-0  10370-3 0  9358
2 25346 086.3963 295.8326 0002351 110.8049 294.9587 14.34216051851629
Epoch (UTC): 19 August 2014 06:53:12
Eccentricity: 0.0002351
inclination: 86.3963°
perigee height: 776 km
apogee height: 779 km
right ascension of ascending node: 295.8326°
argument of perigee: 110.8049°
revolutions per day: 14.34216051
mean anomaly at epoch: 294.9587°
orbit number at epoch: 85162

The dashed part of the orbit path shows where the satellite is in the earth's shadow,  

DLR